User: anonymous   Login
Location: ???? ????
(41.4149°N, 22.8816°E)
Time: 12:07:38
(UTC+00:00)
Language:

Cosmos 1818 - Orbit

View from above orbital plane
View from above orbital plane
View from above satellite
View from above satellite

Ground track
Ground track

The orbit data is extracted from the following two-line orbital elements,

1 17369U 87011A   20274.70119090 -.00000064 +00000-0 +13525-4 0  9996
2 17369 065.0119 328.7378 0014862 284.5723 075.3713 14.31458589810328
Epoch (UTC): 30 September 2020 16:49:42
Eccentricity: 0.0014862
inclination: 65.0119°
perigee height: 776 km
apogee height: 797 km
right ascension of ascending node: 328.7378°
argument of perigee: 284.5723°
revolutions per day: 14.31458589
mean anomaly at epoch: 75.3713°
orbit number at epoch: 81032

The dashed part of the orbit path shows where the satellite is in the earth's shadow,  

DLR